Location: Luz Observatory
(34.5000°N, 117.2833°W)
Time: 12:18:57
(UTC-07:00)

Hubble Space Telescope - Visible Passes

Search period start: 28 June 2017 00:00
Search period end: 08 July 2017 00:00
Orbit: 538 x 541 km, 28.5° (Epoch: 27 June)

Date Brightness Start Highest point End Pass type
(mag) Time Alt. Az. Time Alt. Az. Time Alt. Az.
30 Jun 2.1 05:08:12 10° SW 05:11:40 26° SSE 05:15:09 10° ESE visible
01 Jul 3.3 03:22:41 11° SE 03:22:41 11° SE 03:22:54 10° SE visible
01 Jul 1.9 04:58:02 11° SW 05:01:31 29° S 05:05:08 10° ESE visible
02 Jul 3.3 03:13:00 11° SE 03:13:00 11° SE 03:13:17 10° ESE visible
02 Jul 1.8 04:48:22 14° SW 04:51:23 32° S 04:55:05 10° ESE visible
03 Jul 3.4 03:03:21 11° ESE 03:03:21 11° ESE 03:03:29 10° ESE visible
03 Jul 1.6 04:38:42 17° SW 04:41:15 34° S 04:45:01 10° ESE visible
04 Jul 1.5 04:29:06 22° SW 04:31:07 35° S 04:34:55 10° ESE visible
05 Jul 1.5 04:19:33 27° SW 04:21:00 35° S 04:24:48 10° ESE visible
06 Jul 1.4 04:10:05 32° SSW 04:10:52 35° S 04:14:40 10° ESE visible
07 Jul 1.5 04:00:44 34° S 04:00:45 34° S 04:04:30 10° ESE visible
